Location: Malbork
(54.0304°N, 19.0379°E)
Time: 16:58:48
(UTC+01:00)

ISS - Visible Passes

Search period start: 11 December 2018 00:00
Search period end: 21 December 2018 00:00
Orbit: 401 x 408 km, 51.6° (Epoch: 12 December)

Date Brightness Start Highest point End Pass type
(mag) Time Alt. Az. Time Alt. Az. Time Alt. Az.
11 Dec -1.8 16:38:43 10° W 16:41:35 28° SSW 16:44:27 10° SE visible
12 Dec -0.7 17:23:52 10° WSW 17:25:21 13° SW 17:26:49 10° S visible
13 Dec -0.9 16:31:03 10° WSW 16:33:23 18° SSW 16:35:43 10° SSE visible
15 Dec -0.1 16:24:12 10° SW 16:25:02 11° SW 16:25:52 10° SSW visible
